iso_date,epoch_date,Year,Hour,Min,DOY,POS_DOY,Lat,Lon,BP,Ts,Ta,has_bp,has_ts,has_ta,BuoyID,Buoy_Type,Buoy_Owner,Logistics,Hemisphere
2019-08-04T06:00:00Z,1564898400,2019,6,0,216.25,216.25,60.215,-30.269,1016.9,12.68,-999.0,yes,yes,no,300234066312160,BD2GHI,AOML,UNKNOWN,North
2019-08-04T07:00:28Z,1564902029,2019,7,0,216.292,216.292,60.214,-30.266,1017.0,12.68,-999.0,yes,yes,no,300234066312160,BD2GHI,AOML,UNKNOWN,North
2019-08-04T07:59:31Z,1564905571,2019,8,0,216.333,216.333,60.215,-30.271,1017.2,12.68,-999.0,yes,yes,no,300234066312160,BD2GHI,AOML,UNKNOWN,North
2019-08-04T09:00:00Z,1564909200,2019,9,0,216.375,216.375,60.213,-30.279,1017.4,12.69,-999.0,yes,yes,no,300234066312160,BD2GHI,AOML,UNKNOWN,North
2019-08-04T10:59:31Z,1564916371,2019,11,0,216.458,216.458,60.219,-30.306,1017.5,12.71,-999.0,yes,yes,no,300234066312160,BD2GHI,AOML,UNKNOWN,North
2019-08-04T12:00:00Z,1564920000,2019,12,0,216.5,216.5,60.224,-30.315,1017.7,12.74,-999.0,yes,yes,no,300234066312160,BD2GHI,AOML,UNKNOWN,North
2019-08-04T13:00:28Z,1564923629,2019,13,0,216.542,216.542,60.23,-30.315,1017.9,12.75,-999.0,yes,yes,no,300234066312160,BD2GHI,AOML,UNKNOWN,North
2019-08-04T13:59:31Z,1564927171,2019,14,0,216.583,216.583,60.236,-30.304,1018.0,12.77,-999.0,yes,yes,no,300234066312160,BD2GHI,AOML,UNKNOWN,North
2019-08-04T15:00:00Z,1564930800,2019,15,0,216.625,216.625,60.241,-30.288,1018.0,12.78,-999.0,yes,yes,no,300234066312160,BD2GHI,AOML,UNKNOWN,North
2019-08-04T16:00:28Z,1564934429,2019,16,0,216.667,216.667,60.244,-30.293,1017.7,12.8,-999.0,yes,yes,no,300234066312160,BD2GHI,AOML,UNKNOWN,North
2019-08-04T17:03:50Z,1564938230,2019,17,4,216.711,216.711,60.247,-30.278,1017.7,12.83,-999.0,yes,yes,no,300234066312160,BD2GHI,AOML,UNKNOWN,North
2019-08-04T18:04:19Z,1564941859,2019,18,4,216.753,216.753,60.243,-30.27,1017.5,12.81,-999.0,yes,yes,no,300234066312160,BD2GHI,AOML,UNKNOWN,North
2019-08-04T19:00:28Z,1564945229,2019,19,0,216.792,216.792,60.248,-30.273,1017.6,12.81,-999.0,yes,yes,no,300234066312160,BD2GHI,AOML,UNKNOWN,North
2019-08-04T20:03:50Z,1564949030,2019,20,4,216.836,216.836,60.251,-30.27,1017.8,12.8,-999.0,yes,yes,no,300234066312160,BD2GHI,AOML,UNKNOWN,North
2019-08-04T21:00:00Z,1564952400,2019,21,0,216.875,216.875,60.25,-30.279,1017.5,12.79,-999.0,yes,yes,no,300234066312160,BD2GHI,AOML,UNKNOWN,North
2019-08-04T22:00:28Z,1564956029,2019,22,0,216.917,216.917,60.249,-30.285,1017.8,12.79,-999.0,yes,yes,no,300234066312160,BD2GHI,AOML,UNKNOWN,North
2019-08-04T23:00:57Z,1564959658,2019,23,1,216.959,216.959,60.251,-30.295,1017.9,12.79,-999.0,yes,yes,no,300234066312160,BD2GHI,AOML,UNKNOWN,North
2019-08-05T00:00:00Z,1564963200,2019,0,0,217.0,217.0,60.254,-30.305,1017.6,12.78,-999.0,yes,yes,no,300234066312160,BD2GHI,AOML,UNKNOWN,North
2019-08-05T01:00:28Z,1564966829,2019,1,0,217.042,217.042,60.259,-30.312,1017.6,12.77,-999.0,yes,yes,no,300234066312160,BD2GHI,AOML,UNKNOWN,North
2019-08-05T01:59:31Z,1564970371,2019,2,0,217.083,217.083,60.265,-30.309,1017.2,12.76,-999.0,yes,yes,no,300234066312160,BD2GHI,AOML,UNKNOWN,North
2019-08-05T03:00:00Z,1564974000,2019,3,0,217.125,217.125,60.269,-30.308,1016.8,12.77,-999.0,yes,yes,no,300234066312160,BD2GHI,AOML,UNKNOWN,North
2019-08-05T04:00:28Z,1564977629,2019,4,1,217.167,217.167,60.276,-30.299,1016.8,12.77,-999.0,yes,yes,no,300234066312160,BD2GHI,AOML,UNKNOWN,North
2019-08-05T04:59:31Z,1564981171,2019,5,0,217.208,217.208,60.279,-30.287,1016.6,12.76,-999.0,yes,yes,no,300234066312160,BD2GHI,AOML,UNKNOWN,North
2019-08-05T06:00:00Z,1564984800,2019,6,0,217.25,217.25,60.28,-30.277,1016.3,12.76,-999.0,yes,yes,no,300234066312160,BD2GHI,AOML,UNKNOWN,North
2019-08-05T07:03:21Z,1564988602,2019,7,3,217.294,217.294,60.279,-30.265,1016.3,12.76,-999.0,yes,yes,no,300234066312160,BD2GHI,AOML,UNKNOWN,North
2019-08-05T07:59:31Z,1564991971,2019,8,0,217.333,217.333,60.278,-30.262,1016.0,12.76,-999.0,yes,yes,no,300234066312160,BD2GHI,AOML,UNKNOWN,North
2019-08-05T09:00:00Z,1564995600,2019,9,0,217.375,217.375,60.276,-30.266,1015.5,12.75,-999.0,yes,yes,no,300234066312160,BD2GHI,AOML,UNKNOWN,North
2019-08-05T10:00:28Z,1564999229,2019,10,0,217.417,217.417,60.275,-30.27,1015.4,12.77,-999.0,yes,yes,no,300234066312160,BD2GHI,AOML,UNKNOWN,North
2019-08-05T10:59:31Z,1565002771,2019,11,0,217.458,217.458,60.272,-30.276,1015.7,12.79,-999.0,yes,yes,no,300234066312160,BD2GHI,AOML,UNKNOWN,North
2019-08-05T12:00:00Z,1565006400,2019,12,0,217.5,217.5,60.273,-30.289,1015.2,12.83,-999.0,yes,yes,no,300234066312160,BD2GHI,AOML,UNKNOWN,North
2019-08-05T13:01:55Z,1565010115,2019,13,2,217.543,217.543,60.277,-30.293,1015.5,12.84,-999.0,yes,yes,no,300234066312160,BD2GHI,AOML,UNKNOWN,North
2019-08-05T14:00:57Z,1565013658,2019,14,1,217.584,217.584,60.28,-30.301,1015.4,12.84,-999.0,yes,yes,no,300234066312160,BD2GHI,AOML,UNKNOWN,North
2019-08-05T15:00:00Z,1565017200,2019,15,0,217.625,217.625,60.285,-30.298,1015.4,12.83,-999.0,yes,yes,no,300234066312160,BD2GHI,AOML,UNKNOWN,North
2019-08-05T16:00:28Z,1565020829,2019,16,0,217.667,217.667,60.289,-30.293,1015.5,12.82,-999.0,yes,yes,no,300234066312160,BD2GHI,AOML,UNKNOWN,North
2019-08-05T16:59:31Z,1565024371,2019,17,0,217.708,217.708,60.293,-30.287,1015.6,12.83,-999.0,yes,yes,no,300234066312160,BD2GHI,AOML,UNKNOWN,North
2019-08-05T18:04:19Z,1565028259,2019,18,4,217.753,217.753,60.297,-30.278,1015.7,12.82,-999.0,yes,yes,no,300234066312160,BD2GHI,AOML,UNKNOWN,North
2019-08-05T19:00:28Z,1565031629,2019,19,0,217.792,217.792,60.298,-30.272,1015.7,12.81,-999.0,yes,yes,no,300234066312160,BD2GHI,AOML,UNKNOWN,North
2019-08-05T19:59:31Z,1565035171,2019,20,0,217.833,217.833,60.3,-30.266,1015.7,12.8,-999.0,yes,yes,no,300234066312160,BD2GHI,AOML,UNKNOWN,North
2019-08-05T21:00:00Z,1565038800,2019,21,0,217.875,217.875,60.301,-30.263,1015.6,12.79,-999.0,yes,yes,no,300234066312160,BD2GHI,AOML,UNKNOWN,North
2019-08-05T22:00:28Z,1565042429,2019,22,0,217.917,217.917,60.296,-30.261,1015.9,12.78,-999.0,yes,yes,no,300234066312160,BD2GHI,AOML,UNKNOWN,North
2019-08-05T22:59:31Z,1565045971,2019,23,0,217.958,217.958,60.296,-30.268,1015.9,12.76,-999.0,yes,yes,no,300234066312160,BD2GHI,AOML,UNKNOWN,North
2019-08-06T00:00:00Z,1565049600,2019,0,0,218.0,218.0,60.296,-30.275,1016.3,12.76,-999.0,yes,yes,no,300234066312160,BD2GHI,AOML,UNKNOWN,North
2019-08-06T01:03:21Z,1565053402,2019,1,3,218.044,218.044,60.296,-30.284,1016.7,12.74,-999.0,yes,yes,no,300234066312160,BD2GHI,AOML,UNKNOWN,North
2019-08-06T01:59:31Z,1565056771,2019,2,0,218.083,218.083,60.298,-30.294,1016.4,12.75,-999.0,yes,yes,no,300234066312160,BD2GHI,AOML,UNKNOWN,North
2019-08-06T03:00:00Z,1565060400,2019,3,0,218.125,218.125,60.303,-30.3,1016.2,12.74,-999.0,yes,yes,no,300234066312160,BD2GHI,AOML,UNKNOWN,North
2019-08-06T04:00:28Z,1565064029,2019,4,0,218.167,218.167,60.309,-30.3,1016.5,12.73,-999.0,yes,yes,no,300234066312160,BD2GHI,AOML,UNKNOWN,North
2019-08-06T04:59:31Z,1565067571,2019,5,0,218.208,218.208,60.314,-30.299,1016.3,12.72,-999.0,yes,yes,no,300234066312160,BD2GHI,AOML,UNKNOWN,North
2019-08-06T06:00:00Z,1565071200,2019,6,0,218.25,218.25,60.319,-30.292,1016.6,12.72,-999.0,yes,yes,no,300234066312160,BD2GHI,AOML,UNKNOWN,North
2019-08-06T07:00:28Z,1565074829,2019,7,0,218.292,218.292,60.323,-30.282,1016.7,12.72,-999.0,yes,yes,no,300234066312160,BD2GHI,AOML,UNKNOWN,North
2019-08-06T07:59:31Z,1565078371,2019,8,0,218.333,218.333,60.325,-30.276,1016.8,12.72,-999.0,yes,yes,no,300234066312160,BD2GHI,AOML,UNKNOWN,North
2019-08-06T09:00:00Z,1565082000,2019,9,0,218.375,218.375,60.327,-30.272,1016.6,12.71,-999.0,yes,yes,no,300234066312160,BD2GHI,AOML,UNKNOWN,North
2019-08-06T10:00:28Z,1565085629,2019,10,0,218.417,218.417,60.329,-30.269,1016.7,12.71,-999.0,yes,yes,no,300234066312160,BD2GHI,AOML,UNKNOWN,North
2019-08-06T11:00:57Z,1565089258,2019,11,1,218.459,218.459,60.329,-30.27,1016.7,12.72,-999.0,yes,yes,no,300234066312160,BD2GHI,AOML,UNKNOWN,North
2019-08-06T12:00:00Z,1565092800,2019,12,0,218.5,218.5,60.327,-30.271,1016.7,12.73,-999.0,yes,yes,no,300234066312160,BD2GHI,AOML,UNKNOWN,North
2019-08-06T13:00:28Z,1565096429,2019,13,0,218.542,218.542,60.327,-30.274,1017.0,12.73,-999.0,yes,yes,no,300234066312160,BD2GHI,AOML,UNKNOWN,North
2019-08-06T14:02:24Z,1565100144,2019,14,3,218.585,218.585,60.326,-30.279,1016.9,12.77,-999.0,yes,yes,no,300234066312160,BD2GHI,AOML,UNKNOWN,North
2019-08-06T15:01:26Z,1565103686,2019,15,2,218.626,218.626,60.33,-30.245,1016.8,12.77,-999.0,yes,yes,no,300234066312160,BD2GHI,AOML,UNKNOWN,North
2019-08-06T16:01:55Z,1565107315,2019,16,2,218.668,218.668,60.333,-30.296,1016.6,12.77,-999.0,yes,yes,no,300234066312160,BD2GHI,AOML,UNKNOWN,North
2019-08-06T16:59:31Z,1565110771,2019,17,0,218.708,218.708,60.338,-30.294,1016.5,12.77,-999.0,yes,yes,no,300234066312160,BD2GHI,AOML,UNKNOWN,North
2019-08-06T18:00:00Z,1565114400,2019,18,0,218.75,218.75,60.343,-30.293,1016.4,12.78,-999.0,yes,yes,no,300234066312160,BD2GHI,AOML,UNKNOWN,North
2019-08-06T19:00:28Z,1565118029,2019,19,0,218.792,218.792,60.348,-30.293,1016.6,12.78,-999.0,yes,yes,no,300234066312160,BD2GHI,AOML,UNKNOWN,North
2019-08-06T19:59:31Z,1565121571,2019,20,0,218.833,218.833,60.355,-30.287,1016.4,12.78,-999.0,yes,yes,no,300234066312160,BD2GHI,AOML,UNKNOWN,North
2019-08-06T21:00:00Z,1565125200,2019,21,0,218.875,218.875,60.361,-30.283,1015.9,12.77,-999.0,yes,yes,no,300234066312160,BD2GHI,AOML,UNKNOWN,North
2019-08-06T22:00:28Z,1565128829,2019,22,0,218.917,218.917,60.359,-30.269,1015.8,12.75,-999.0,yes,yes,no,300234066312160,BD2GHI,AOML,UNKNOWN,North
2019-08-06T22:59:31Z,1565132371,2019,23,0,218.958,218.958,60.366,-30.27,1015.4,12.74,-999.0,yes,yes,no,300234066312160,BD2GHI,AOML,UNKNOWN,North
2019-08-07T00:00:00Z,1565136000,2019,0,0,219.0,219.0,60.368,-30.268,1015.5,12.74,-999.0,yes,yes,no,300234066312160,BD2GHI,AOML,UNKNOWN,North
2019-08-07T01:00:28Z,1565139629,2019,1,0,219.042,219.042,60.366,-30.261,1015.2,12.74,-999.0,yes,yes,no,300234066312160,BD2GHI,AOML,UNKNOWN,North
2019-08-07T01:59:31Z,1565143171,2019,2,0,219.083,219.083,60.365,-30.261,1015.2,12.73,-999.0,yes,yes,no,300234066312160,BD2GHI,AOML,UNKNOWN,North
2019-08-07T03:00:00Z,1565146800,2019,3,0,219.125,219.125,60.363,-30.267,1014.8,12.72,-999.0,yes,yes,no,300234066312160,BD2GHI,AOML,UNKNOWN,North
2019-08-07T04:00:28Z,1565150429,2019,4,0,219.167,219.167,60.366,-30.271,1014.6,12.72,-999.0,yes,yes,no,300234066312160,BD2GHI,AOML,UNKNOWN,North
2019-08-07T04:59:31Z,1565153971,2019,5,0,219.208,219.208,60.367,-30.278,1014.4,12.71,-999.0,yes,yes,no,300234066312160,BD2GHI,AOML,UNKNOWN,North
2019-08-07T06:00:00Z,1565157600,2019,6,0,219.25,219.25,60.372,-30.284,1014.2,12.71,-999.0,yes,yes,no,300234066312160,BD2GHI,AOML,UNKNOWN,North
2019-08-07T07:00:28Z,1565161229,2019,7,0,219.292,219.292,60.379,-30.282,1014.3,12.7,-999.0,yes,yes,no,300234066312160,BD2GHI,AOML,UNKNOWN,North
2019-08-07T07:59:31Z,1565164771,2019,8,0,219.333,219.333,60.386,-30.278,1014.2,12.69,-999.0,yes,yes,no,300234066312160,BD2GHI,AOML,UNKNOWN,North
2019-08-07T09:00:00Z,1565168400,2019,9,0,219.375,219.375,60.39,-30.272,1014.1,12.7,-999.0,yes,yes,no,300234066312160,BD2GHI,AOML,UNKNOWN,North
2019-08-07T10:00:28Z,1565172029,2019,10,0,219.417,219.417,60.394,-30.267,1013.9,12.7,-999.0,yes,yes,no,300234066312160,BD2GHI,AOML,UNKNOWN,North
2019-08-07T10:59:31Z,1565175571,2019,11,0,219.458,219.458,60.396,-30.264,1013.8,12.72,-999.0,yes,yes,no,300234066312160,BD2GHI,AOML,UNKNOWN,North
2019-08-07T12:00:00Z,1565179200,2019,12,0,219.5,219.5,60.397,-30.26,1013.8,12.73,-999.0,yes,yes,no,300234066312160,BD2GHI,AOML,UNKNOWN,North
2019-08-07T13:00:28Z,1565182829,2019,13,0,219.542,219.542,60.399,-30.26,1013.9,12.76,-999.0,yes,yes,no,300234066312160,BD2GHI,AOML,UNKNOWN,North
2019-08-07T15:00:00Z,1565190000,2019,15,0,219.625,219.625,60.398,-30.263,1013.8,12.81,-999.0,yes,yes,no,300234066312160,BD2GHI,AOML,UNKNOWN,North
2019-08-07T16:00:28Z,1565193629,2019,16,0,219.667,219.667,60.399,-30.27,1013.8,12.87,-999.0,yes,yes,no,300234066312160,BD2GHI,AOML,UNKNOWN,North
2019-08-07T16:59:31Z,1565197171,2019,17,0,219.708,219.708,60.404,-30.276,1013.6,12.92,-999.0,yes,yes,no,300234066312160,BD2GHI,AOML,UNKNOWN,North
2019-08-07T18:00:00Z,1565200800,2019,18,0,219.75,219.75,60.408,-30.279,1013.5,12.94,-999.0,yes,yes,no,300234066312160,BD2GHI,AOML,UNKNOWN,North
2019-08-07T19:00:28Z,1565204429,2019,19,0,219.792,219.792,60.417,-30.283,1013.7,12.94,-999.0,yes,yes,no,300234066312160,BD2GHI,AOML,UNKNOWN,North
2019-08-07T20:00:57Z,1565208058,2019,20,1,219.834,219.834,60.427,-30.281,1013.8,12.96,-999.0,yes,yes,no,300234066312160,BD2GHI,AOML,UNKNOWN,North
2019-08-07T21:00:00Z,1565211600,2019,21,0,219.875,219.875,60.436,-30.274,1014.1,12.93,-999.0,yes,yes,no,300234066312160,BD2GHI,AOML,UNKNOWN,North
2019-08-07T22:00:28Z,1565215229,2019,22,0,219.917,219.917,60.443,-30.268,1014.2,12.91,-999.0,yes,yes,no,300234066312160,BD2GHI,AOML,UNKNOWN,North
2019-08-07T22:59:31Z,1565218771,2019,23,0,219.958,219.958,60.448,-30.261,1014.4,12.89,-999.0,yes,yes,no,300234066312160,BD2GHI,AOML,UNKNOWN,North
2019-08-08T01:00:28Z,1565226029,2019,1,0,220.042,220.042,60.456,-30.245,1014.5,12.87,-999.0,yes,yes,no,300234066312160,BD2GHI,AOML,UNKNOWN,North
2019-08-08T01:59:31Z,1565229571,2019,2,0,220.083,220.083,60.457,-30.238,1014.3,12.85,-999.0,yes,yes,no,300234066312160,BD2GHI,AOML,UNKNOWN,North
2019-08-08T03:01:26Z,1565233286,2019,3,1,220.126,220.126,60.459,-30.235,1014.4,12.85,-999.0,yes,yes,no,300234066312160,BD2GHI,AOML,UNKNOWN,North
2019-08-08T04:00:28Z,1565236829,2019,4,0,220.167,220.167,60.461,-30.232,1014.1,12.83,-999.0,yes,yes,no,300234066312160,BD2GHI,AOML,UNKNOWN,North
2019-08-08T04:59:31Z,1565240371,2019,5,0,220.208,220.208,60.462,-30.232,1014.1,12.82,-999.0,yes,yes,no,300234066312160,BD2GHI,AOML,UNKNOWN,North
2019-08-08T06:00:00Z,1565244000,2019,6,0,220.25,220.25,60.465,-30.236,1014.0,12.81,-999.0,yes,yes,no,300234066312160,BD2GHI,AOML,UNKNOWN,North
2019-08-08T07:00:28Z,1565247629,2019,7,0,220.292,220.292,60.469,-30.235,1014.1,12.82,-999.0,yes,yes,no,300234066312160,BD2GHI,AOML,UNKNOWN,North
2019-08-08T08:00:57Z,1565251258,2019,8,1,220.334,220.334,60.475,-30.238,1014.4,12.81,-999.0,yes,yes,no,300234066312160,BD2GHI,AOML,UNKNOWN,North
2019-08-08T09:00:00Z,1565254800,2019,9,0,220.375,220.375,60.482,-30.238,1014.5,12.83,-999.0,yes,yes,no,300234066312160,BD2GHI,AOML,UNKNOWN,North
2019-08-08T10:00:28Z,1565258429,2019,10,0,220.417,220.417,60.49,-30.236,1014.6,12.85,-999.0,yes,yes,no,300234066312160,BD2GHI,AOML,UNKNOWN,North
2019-08-08T10:59:31Z,1565261971,2019,11,0,220.458,220.458,60.498,-30.233,1014.7,12.91,-999.0,yes,yes,no,300234066312160,BD2GHI,AOML,UNKNOWN,North
2019-08-08T12:00:00Z,1565265600,2019,12,0,220.5,220.5,60.507,-30.232,1014.6,12.94,-999.0,yes,yes,no,300234066312160,BD2GHI,AOML,UNKNOWN,North
2019-08-08T13:00:28Z,1565269229,2019,13,0,220.542,220.542,60.513,-30.226,1014.9,13.01,-999.0,yes,yes,no,300234066312160,BD2GHI,AOML,UNKNOWN,North
2019-08-08T13:59:31Z,1565272771,2019,14,0,220.583,220.583,60.52,-30.222,1015.1,13.02,-999.0,yes,yes,no,300234066312160,BD2GHI,AOML,UNKNOWN,North
2019-08-08T15:00:00Z,1565276400,2019,15,0,220.625,220.625,60.528,-30.212,1015.0,13.03,-999.0,yes,yes,no,300234066312160,BD2GHI,AOML,UNKNOWN,North
2019-08-08T16:00:28Z,1565280029,2019,16,0,220.667,220.667,60.53,-30.198,1015.0,13.07,-999.0,yes,yes,no,300234066312160,BD2GHI,AOML,UNKNOWN,North
2019-08-08T16:59:31Z,1565283571,2019,17,0,220.708,220.708,60.531,-30.191,1015.3,13.04,-999.0,yes,yes,no,300234066312160,BD2GHI,AOML,UNKNOWN,North
2019-08-08T18:00:00Z,1565287200,2019,18,0,220.75,220.75,60.532,-30.188,1015.4,13.0,-999.0,yes,yes,no,300234066312160,BD2GHI,AOML,UNKNOWN,North
2019-08-08T19:00:28Z,1565290829,2019,19,0,220.792,220.792,60.533,-30.187,1015.7,13.0,-999.0,yes,yes,no,300234066312160,BD2GHI,AOML,UNKNOWN,North
2019-08-08T19:59:31Z,1565294371,2019,20,0,220.833,220.833,60.535,-30.186,1015.8,12.99,-999.0,yes,yes,no,300234066312160,BD2GHI,AOML,UNKNOWN,North
2019-08-08T21:00:00Z,1565298000,2019,21,0,220.875,220.875,60.54,-30.188,1015.6,13.0,-999.0,yes,yes,no,300234066312160,BD2GHI,AOML,UNKNOWN,North
2019-08-08T22:00:28Z,1565301629,2019,22,0,220.917,220.917,60.548,-30.192,1016.0,12.98,-999.0,yes,yes,no,300234066312160,BD2GHI,AOML,UNKNOWN,North
2019-08-08T22:59:31Z,1565305171,2019,23,0,220.958,220.958,60.558,-30.195,1016.3,12.96,-999.0,yes,yes,no,300234066312160,BD2GHI,AOML,UNKNOWN,North
2019-08-09T00:00:00Z,1565308800,2019,0,0,221.0,221.0,60.569,-30.192,1016.1,12.95,-999.0,yes,yes,no,300234066312160,BD2GHI,AOML,UNKNOWN,North
2019-08-09T01:00:28Z,1565312429,2019,1,0,221.042,221.042,60.578,-30.189,1016.5,12.93,-999.0,yes,yes,no,300234066312160,BD2GHI,AOML,UNKNOWN,North
2019-08-09T01:59:31Z,1565315971,2019,2,0,221.083,221.083,60.588,-30.182,1016.3,12.91,-999.0,yes,yes,no,300234066312160,BD2GHI,AOML,UNKNOWN,North
2019-08-09T03:00:00Z,1565319600,2019,3,0,221.125,221.125,60.596,-30.172,1016.2,12.9,-999.0,yes,yes,no,300234066312160,BD2GHI,AOML,UNKNOWN,North
2019-08-09T04:00:28Z,1565323229,2019,4,0,221.167,221.167,60.603,-30.161,1016.3,12.87,-999.0,yes,yes,no,300234066312160,BD2GHI,AOML,UNKNOWN,North
2019-08-09T04:59:31Z,1565326771,2019,5,0,221.208,221.208,60.609,-30.147,1015.8,12.86,-999.0,yes,yes,no,300234066312160,BD2GHI,AOML,UNKNOWN,North
2019-08-09T06:00:00Z,1565330400,2019,6,0,221.25,221.25,60.613,-30.134,1016.3,12.85,-999.0,yes,yes,no,300234066312160,BD2GHI,AOML,UNKNOWN,North
2019-08-09T07:59:31Z,1565337571,2019,8,0,221.333,221.333,60.621,-30.12,1016.9,12.81,-999.0,yes,yes,no,300234066312160,BD2GHI,AOML,UNKNOWN,North
2019-08-09T09:00:00Z,1565341200,2019,9,0,221.375,221.375,60.624,-30.117,1017.1,12.8,-999.0,yes,yes,no,300234066312160,BD2GHI,AOML,UNKNOWN,North
2019-08-09T10:00:28Z,1565344829,2019,10,0,221.417,221.417,60.629,-30.118,1017.3,12.79,-999.0,yes,yes,no,300234066312160,BD2GHI,AOML,UNKNOWN,North
2019-08-09T10:59:31Z,1565348371,2019,11,0,221.458,221.458,60.635,-30.121,1017.4,12.79,-999.0,yes,yes,no,300234066312160,BD2GHI,AOML,UNKNOWN,North
2019-08-09T12:00:00Z,1565352000,2019,12,0,221.5,221.5,60.644,-30.124,1017.8,12.8,-999.0,yes,yes,no,300234066312160,BD2GHI,AOML,UNKNOWN,North
2019-08-09T13:00:28Z,1565355629,2019,13,0,221.542,221.542,60.656,-30.124,1017.8,12.82,-999.0,yes,yes,no,300234066312160,BD2GHI,AOML,UNKNOWN,North
2019-08-09T14:02:24Z,1565359344,2019,14,3,221.585,221.585,60.667,-30.12,1018.0,12.84,-999.0,yes,yes,no,300234066312160,BD2GHI,AOML,UNKNOWN,North
2019-08-09T15:00:00Z,1565362800,2019,15,0,221.625,221.625,60.682,-30.115,1017.9,12.87,-999.0,yes,yes,no,300234066312160,BD2GHI,AOML,UNKNOWN,North
2019-08-09T16:03:21Z,1565366602,2019,16,4,221.669,221.669,60.691,-30.099,1018.3,12.88,-999.0,yes,yes,no,300234066312160,BD2GHI,AOML,UNKNOWN,North
2019-08-09T17:00:57Z,1565370058,2019,17,1,221.709,221.709,60.7,-30.088,1018.1,12.91,-999.0,yes,yes,no,300234066312160,BD2GHI,AOML,UNKNOWN,North
2019-08-09T18:00:00Z,1565373600,2019,18,0,221.75,221.75,60.707,-30.079,1018.3,12.91,-999.0,yes,yes,no,300234066312160,BD2GHI,AOML,UNKNOWN,North
2019-08-09T19:00:28Z,1565377229,2019,19,0,221.792,221.792,60.714,-30.063,1018.6,12.9,-999.0,yes,yes,no,300234066312160,BD2GHI,AOML,UNKNOWN,North
2019-08-09T19:59:31Z,1565380771,2019,20,0,221.833,221.833,60.719,-30.051,1018.8,12.89,-999.0,yes,yes,no,300234066312160,BD2GHI,AOML,UNKNOWN,North
2019-08-09T21:00:00Z,1565384400,2019,21,0,221.875,221.875,60.725,-30.038,1019.3,12.89,-999.0,yes,yes,no,300234066312160,BD2GHI,AOML,UNKNOWN,North
2019-08-09T22:00:28Z,1565388029,2019,22,0,221.917,221.917,60.732,-30.027,1019.3,12.87,-999.0,yes,yes,no,300234066312160,BD2GHI,AOML,UNKNOWN,North
2019-08-09T22:59:31Z,1565391571,2019,23,0,221.958,221.958,60.737,-30.022,1019.7,12.86,-999.0,yes,yes,no,300234066312160,BD2GHI,AOML,UNKNOWN,North
2019-08-10T00:04:19Z,1565395459,2019,0,4,222.003,222.003,60.745,-30.017,1019.9,12.85,-999.0,yes,yes,no,300234066312160,BD2GHI,AOML,UNKNOWN,North
2019-08-10T01:00:28Z,1565398829,2019,1,0,222.042,222.042,60.751,-30.019,1019.7,12.83,-999.0,yes,yes,no,300234066312160,BD2GHI,AOML,UNKNOWN,North
2019-08-10T01:59:31Z,1565402371,2019,2,0,222.083,222.083,60.761,-30.012,1019.7,12.81,-999.0,yes,yes,no,300234066312160,BD2GHI,AOML,UNKNOWN,North
2019-08-10T03:00:00Z,1565406000,2019,3,0,222.125,222.125,60.772,-30.004,1020.0,12.81,-999.0,yes,yes,no,300234066312160,BD2GHI,AOML,UNKNOWN,North
2019-08-10T04:00:28Z,1565409629,2019,4,0,222.167,222.167,60.782,-29.997,1019.7,12.79,-999.0,yes,yes,no,300234066312160,BD2GHI,AOML,UNKNOWN,North
2019-08-10T04:59:31Z,1565413171,2019,5,0,222.208,222.208,60.791,-29.981,1019.9,12.79,-999.0,yes,yes,no,300234066312160,BD2GHI,AOML,UNKNOWN,North
2019-08-10T06:04:19Z,1565417059,2019,6,4,222.253,222.253,60.802,-29.964,1020.1,12.78,-999.0,yes,yes,no,300234066312160,BD2GHI,AOML,UNKNOWN,North
2019-08-10T07:03:21Z,1565420602,2019,7,4,222.294,222.294,60.813,-29.948,1020.0,12.77,-999.0,yes,yes,no,300234066312160,BD2GHI,AOML,UNKNOWN,North
2019-08-10T07:59:31Z,1565423971,2019,8,0,222.333,222.333,60.821,-29.928,1020.3,12.75,-999.0,yes,yes,no,300234066312160,BD2GHI,AOML,UNKNOWN,North
2019-08-10T09:00:00Z,1565427600,2019,9,0,222.375,222.375,60.826,-29.908,1020.3,12.75,-999.0,yes,yes,no,300234066312160,BD2GHI,AOML,UNKNOWN,North
2019-08-10T10:00:28Z,1565431229,2019,10,0,222.417,222.417,60.832,-29.89,1020.2,12.76,-999.0,yes,yes,no,300234066312160,BD2GHI,AOML,UNKNOWN,North
2019-08-10T11:00:57Z,1565434858,2019,11,1,222.459,222.459,60.835,-29.879,1020.4,12.75,-999.0,yes,yes,no,300234066312160,BD2GHI,AOML,UNKNOWN,North
2019-08-10T12:04:19Z,1565438659,2019,12,4,222.503,222.503,60.837,-29.86,1020.6,12.76,-999.0,yes,yes,no,300234066312160,BD2GHI,AOML,UNKNOWN,North
2019-08-10T13:00:28Z,1565442029,2019,13,1,222.542,222.542,60.843,-29.858,1020.7,12.75,-999.0,yes,yes,no,300234066312160,BD2GHI,AOML,UNKNOWN,North
2019-08-10T13:59:31Z,1565445571,2019,14,0,222.583,222.583,60.846,-29.851,1020.8,12.75,-999.0,yes,yes,no,300234066312160,BD2GHI,AOML,UNKNOWN,North
2019-08-10T15:00:00Z,1565449200,2019,15,0,222.625,222.625,60.853,-29.851,1020.8,12.75,-999.0,yes,yes,no,300234066312160,BD2GHI,AOML,UNKNOWN,North
2019-08-10T16:03:21Z,1565453002,2019,16,4,222.669,222.669,60.864,-29.847,1020.8,12.75,-999.0,yes,yes,no,300234066312160,BD2GHI,AOML,UNKNOWN,North
2019-08-10T17:03:50Z,1565456630,2019,17,4,222.711,222.711,60.875,-29.843,1020.9,12.75,-999.0,yes,yes,no,300234066312160,BD2GHI,AOML,UNKNOWN,North
2019-08-10T18:00:00Z,1565460000,2019,18,0,222.75,222.75,60.884,-29.831,1020.9,12.75,-999.0,yes,yes,no,300234066312160,BD2GHI,AOML,UNKNOWN,North
2019-08-10T19:00:28Z,1565463629,2019,19,0,222.792,222.792,60.895,-29.816,1021.2,12.75,-999.0,yes,yes,no,300234066312160,BD2GHI,AOML,UNKNOWN,North
2019-08-10T19:59:31Z,1565467171,2019,20,0,222.833,222.833,60.904,-29.799,1021.4,12.75,-999.0,yes,yes,no,300234066312160,BD2GHI,AOML,UNKNOWN,North
2019-08-10T21:00:00Z,1565470800,2019,21,0,222.875,222.875,60.911,-29.776,1021.7,12.74,-999.0,yes,yes,no,300234066312160,BD2GHI,AOML,UNKNOWN,North
2019-08-10T22:00:28Z,1565474429,2019,22,1,222.917,222.917,60.921,-29.753,1021.8,12.74,-999.0,yes,yes,no,300234066312160,BD2GHI,AOML,UNKNOWN,North
2019-08-10T23:00:57Z,1565478058,2019,23,1,222.959,222.959,60.925,-29.731,1021.9,12.74,-999.0,yes,yes,no,300234066312160,BD2GHI,AOML,UNKNOWN,North
2019-08-11T00:04:19Z,1565481859,2019,0,4,223.003,223.003,60.931,-29.71,1021.7,12.74,-999.0,yes,yes,no,300234066312160,BD2GHI,AOML,UNKNOWN,North
2019-08-11T01:01:55Z,1565485315,2019,1,2,223.043,223.043,60.935,-29.694,1021.7,12.73,-999.0,yes,yes,no,300234066312160,BD2GHI,AOML,UNKNOWN,North
2019-08-11T01:59:31Z,1565488771,2019,2,0,223.083,223.083,60.939,-29.678,1021.4,12.72,-999.0,yes,yes,no,300234066312160,BD2GHI,AOML,UNKNOWN,North
2019-08-11T03:00:00Z,1565492400,2019,3,0,223.125,223.125,60.943,-29.666,1021.6,12.73,-999.0,yes,yes,no,300234066312160,BD2GHI,AOML,UNKNOWN,North
2019-08-11T04:01:55Z,1565496115,2019,4,2,223.168,223.168,60.946,-29.659,1021.4,12.72,-999.0,yes,yes,no,300234066312160,BD2GHI,AOML,UNKNOWN,North
2019-08-11T05:00:57Z,1565499658,2019,5,1,223.209,223.209,60.951,-29.65,1021.0,12.72,-999.0,yes,yes,no,300234066312160,BD2GHI,AOML,UNKNOWN,North